THOR ABLESTAR DEB, 327

Orbit data source: Space-Track

THOR ABLESTAR DEB, 327 is space debris in LEO originally from a launch on Thu, 29 Jun 1961 UTC launched from the Air Force Eastern Test Range (AFETR). Debris objects in space refer to the collection of defunct objects orbiting the Earth. Examples of debris include non-operational satellites, rocket bodies, and fragments generated from explosions, collisions, or faulty payload assembly.

Loading next visibility...
Identifier
327, 1961-015DD
Orbit
LEO
Country
Flag of USUS
Related business
Manufacturer
Unknown
Mission
Spacecraft
Bus & Motor
Unknown
Mass
Unknown
Launch date (UTC)
1961-06-29 (65 years ago)
Launch vehicle
Unknown
Launch site
Air Force Eastern Test Range (AFETR)
Object type
Payload
Rocket body
Debris
Shape & HBR
Unknown shape, 0.1 m
Radar Cross Section
Medium (>0.1 m² and <1 m²)

Expand to show TLE details & history
Last TLE update: 1 day ago

TLE from 1 day ago
0 THOR ABLESTAR DEB
1 00327U 61015DD  26163.02682874  .00000104  00000-0  13923-3 0  9996
2 00327  66.5436  40.6279 0107006 139.6106 221.2979 13.90873303286029
Epoch: 2026-06-12T00:38Z
TLE epoch observation values (Epoch: 2026-06-12T00:38:38.003Z)
Latitude
-0.00005°
Longitude
130.60736°
Altitude
986.712 km
Speed
7.329 km/s
True Right ascension
02h 42m 30s
True Declination
0° 00' 00"
Sunlit
Object was in daylight at epoch
Visualization orbit readout
Latitude
Unknown
Longitude
Unknown
Altitude
Unknown
Speed
Unknown
Apparent Right ascension
Unknown
Apparent Declination
Unknown
Sunlit
N/A
Visualization observer readout
Local Sidereal Time
13:28:53
Azimuth
Unknown
Elevation
Unknown
Doppler factor
Unknown
Orbital elements
Apogee altitude
1,002.132 km
Perigee altitude
845.857 km
Semi-major axis
7,302.132 km
Eccentricity
0.0107
Inclination
66.5436°
RAAN
40.6279°
Arg. of periapsis
139.6106°
True anomaly
220.49672°
Mean anomaly
221.2979°
Eccentric anomaly
220.89651°
Mean motion
3.47831 °/min
Orbital period
103.5 mins
BSTAR
0.00013923
Loading maneuver chart data...
Computing Atmospheric mass density...
Loading historical data...
Loading historical data...
Loading historical data...
Loading historical data...
Loading historical data...
Loading historical data...
Loading historical data...

Documentation

Showing up to 5 results
|